Gulkana, AK

1:58 PM AKST on February 19, 2018 (GMT -0900)
Gulkana

Weather History for PAGK - April, 2014

Change the Weather History Date:

Wednesday, April 16, 2014

  Actual Average Record
Temperature  
Mean Temperature 38 °F -  
Max Temperature 48 °F 41 °F 55 °F (2012)
Min Temperature 27 °F 20 °F -16 °F (1972)
Degree Days  
Heating Degree Days 28    
Moisture  
Dew Point 28 °F    
Average Humidity 71    
Maximum Humidity 96    
Minimum Humidity 34    
Precipitation  
Precipitation 0.00 in - - ()
Sea Level Pressure  
Sea Level Pressure 29.73 in    
Wind  
Wind Speed 3 mph (ESE)    
Max Wind Speed 9 mph    
Max Gust Speed -    
Visibility 10 miles    
Events Rain    
Averages and records for this station are not official NWS values.
T = Trace of Precipitation, MM = Missing Value Source: NWS Daily Summary

Daily Weather History Graph

Daily Weather History Graph

Search for Another Location

Airport or City:

Trip Planner

Search our weather history database for the weather conditions in past years. The results will help you decide how hot, cold, wet, or windy it might be!

Date:

Astronomy

Apr. 16, 2014 Rise Set
Actual Time 6:13 AM AKDT 9:10 PM AKDT
Civil Twilight 5:23 AM AKDT 10:02 PM AKDT
Nautical Twilight 4:11 AM AKDT 11:14 PM AKDT
Astronomical Twilight 2:14 AM AKDT 1:09 AM AKDT
Moon 11:36 PM AKDT (4/16) 6:46 AM AKDT (4/16)
Length of Visible Light 16h 39m
Length of Day
14h 56m
Full, 97% of the Moon is Illuminated
Apr 16
Full
Apr 21
Last Quarter
Apr 28
New
May 6
First Quarter
May 14
Full

Hourly Weather History & Observations

Time (AKDT) Temp. Windchill Dew Point Humidity Pressure Visibility Wind Dir Wind Speed Gust Speed Precip Events Conditions
12:53 AM 35.1 °F 31.0 °F 28.9 °F 78% 29.83 in 10.0 mi SE 4.6 mph - N/A   Overcast
1:53 AM 34.0 °F 31.0 °F 28.0 °F 79% 29.83 in 10.0 mi SSE 3.5 mph - N/A   Overcast
2:53 AM 33.1 °F 27.7 °F 28.0 °F 82% 29.82 in 10.0 mi South 5.8 mph - N/A   Scattered Clouds
3:53 AM 33.1 °F 26.1 °F 28.9 °F 85% 29.82 in 10.0 mi South 8.1 mph - N/A   Overcast
4:53 AM 30.9 °F 27.5 °F 28.9 °F 92% 29.83 in 10.0 mi ESE 3.5 mph - N/A   Partly Cloudy
5:53 AM 27.0 °F - 26.1 °F 96% 29.83 in 10.0 mi Calm Calm - N/A   Overcast
6:53 AM 28.9 °F - 26.1 °F 89% 29.83 in 10.0 mi Calm Calm - N/A   Overcast
7:53 AM 30.9 °F 27.5 °F 28.0 °F 89% 29.82 in 10.0 mi NNE 3.5 mph - N/A   Overcast
8:53 AM 34.0 °F - 30.0 °F 85% 29.82 in 10.0 mi Calm Calm - N/A   Overcast
10:53 AM 37.9 °F - 30.0 °F 73% 29.78 in 10.0 mi Calm Calm - N/A   Mostly Cloudy
11:53 AM 41.0 °F - 28.9 °F 62% 29.76 in 10.0 mi Calm Calm - N/A   Clear
12:53 PM 48.0 °F - 28.0 °F 46% 29.73 in 10.0 mi Calm Calm - N/A   Clear
1:53 PM 45.0 °F 43.5 °F 25.0 °F 46% 29.72 in 10.0 mi SSW 3.5 mph - N/A   Clear
2:53 PM 45.0 °F 40.1 °F 26.1 °F 48% 29.70 in 10.0 mi ESE 9.2 mph - N/A   Overcast
3:53 PM 45.0 °F - 26.1 °F 48% 29.69 in 10.0 mi Calm Calm - 0.00 in   Overcast
4:53 PM 44.1 °F 42.5 °F 26.1 °F 49% 29.68 in 10.0 mi ESE 3.5 mph - N/A   Overcast
5:53 PM 41.0 °F 35.8 °F 30.0 °F 65% 29.68 in 10.0 mi NE 8.1 mph - 0.00 in Rain Light Rain
6:53 PM 39.0 °F 33.4 °F 30.9 °F 73% 29.67 in 10.0 mi North 8.1 mph - 0.00 in   Overcast
7:53 PM 39.9 °F 35.1 °F 30.0 °F 68% 29.64 in 10.0 mi NE 6.9 mph - N/A   Overcast
8:53 PM 37.9 °F - 30.0 °F 73% 29.62 in 10.0 mi Calm Calm - N/A   Overcast
9:53 PM 34.0 °F - 28.9 °F 82% 29.61 in 10.0 mi Calm Calm - N/A   Overcast
10:53 PM 33.1 °F - 28.9 °F 85% 29.60 in 10.0 mi Calm Calm - N/A   Overcast
11:53 PM 35.1 °F 32.2 °F 28.9 °F 78% 29.57 in 10.0 mi West 3.5 mph - N/A   Overcast